This is the latest recevied weather packets stored in our database for station/object K1WJY. If no packets are shown the sender has not sent any weather packets the latest 10 day(s).
| Time | Temp. | Humidity | Pressure | Rain* | Wind** | Luminosity | Snow |
|---|---|---|---|---|---|---|---|
| 1788022648 | 24.44° C | 47% | 1022.2 hPa | 0 mm | - | 645 W/m² | - |
| 1788022347 | 24.44° C | 46% | 1022.4 hPa | 0 mm | - | 663 W/m² | - |
| 1788022046 | 24.44° C | 49% | 1022.2 hPa | 0 mm | - | 660 W/m² | - |
| 1788021741 | 24.44° C | 46% | 1022.4 hPa | 0 mm | - | 660 W/m² | - |
| 1788021440 | 24.44° C | 49% | 1022.4 hPa | 0 mm | - | 661 W/m² | - |
| 1788021140 | 24.44° C | 47% | 1022.7 hPa | 0 mm | - | 659 W/m² | - |
| 1788020835 | 23.89° C | 47% | 1022.7 hPa | 0 mm | - | 657 W/m² | - |
| 1788020530 | 23.89° C | 46% | 1022.5 hPa | 0 mm | - | 655 W/m² | - |
| 1788020226 | 23.89° C | 48% | 1022.5 hPa | 0 mm | - | 653 W/m² | - |
| 1788019921 | 23.33° C | 49% | 1022.6 hPa | 0 mm | - | 652 W/m² | - |
| 1788019616 | 22.78° C | 52% | 1022.8 hPa | 0 mm | - | 650 W/m² | - |
| 1788019315 | 23.89° C | 50% | 1022.7 hPa | 0 mm | - | 645 W/m² | - |
| 1788019014 | 23.89° C | 48% | 1022.8 hPa | 0 mm | - | 655 W/m² | - |
| 1788018709 | 23.89° C | 51% | 1022.7 hPa | 0 mm | - | 665 W/m² | - |
| 1788018408 | 23.89° C | 54% | 1022.8 hPa | 0 mm | - | 652 W/m² | - |
| 1788018103 | 23.89° C | 52% | 1022.6 hPa | 0 mm | - | 665 W/m² | - |
| 1788017799 | 23.33° C | 56% | 1022.9 hPa | 0 mm | - | 664 W/m² | - |
| 1788017495 | 22.78° C | 54% | 1023 hPa | 0 mm | - | 655 W/m² | - |
| 1788017192 | 22.78° C | 56% | 1023.2 hPa | 0 mm | - | 660 W/m² | - |
| 1788016892 | 22.78° C | 57% | 1023.2 hPa | 0 mm | - | 675 W/m² | - |
| 1788016590 | 22.78° C | 57% | 1023.2 hPa | 0 mm | - | 671 W/m² | - |
| 1788016285 | 22.22° C | 57% | 1023 hPa | 0 mm | - | 656 W/m² | - |
| 1788015985 | 21.67° C | 58% | 1023 hPa | 0 mm | - | 648 W/m² | - |
| 1788015680 | 22.22° C | 57% | 1023.2 hPa | 0 mm | - | 705 W/m² | - |
| 1788015380 | 22.22° C | 58% | 1023.1 hPa | 0 mm | - | 714 W/m² | - |
* Rain latest hour (hover to see other rain measurements)
** Current wind speed in m/s (hover to see current wind gust speed)